SCP
0 0 0 0 0 0 0 0 0 0 0 0 0 0 0 0 0 0 0 0 0 0 0 0 0 0 0 0 0 0 0 0 0 0 0 0 0 0 0 0 0 0 0 0
0 0 0 0 0 0 0 0 0 0 0 0 0 0 0 0 0 0 0 0 0 0 0 0 0 0 0 0 0 0 0 0 0 0 0 0 0 0 0 0 0 0 0 0
0 0 0 0 0 0 0 0 0 0 0 0 0 0 0 0 -0 -0 0 0 0 0 -0 0 0 0 0 0 0 0 0 0 0 0 0 0 0 0 0 0 0 0 0 0
0 0 0 0 0 0 0 0 0 0 0 0 0 0 -0 -0 -0 0 0 0 0 0 0 0 0 0 0 0 0 0 0 0 0 0 0 0 0 0 0 0 0 0 0 0
0 0 0 0 0 0 0 0 0 0 0 0 0 0 -0 -0 -0 0 0 0 0 0 0 0 0 0 0 0 0 0 0 0 0 0 0 0 0 0 0 0 0 0 0 0
0 0 0 0 0 0 0 0 0 0 0 0 0 0 -0 -0 -0 0 0 0 0 0 0 0 0 0 0 0 0 0 0 0 0 0 0 0 0 0 0 0 0 0 0 0
0 0 0 0 0 0 0 0 0 0 0 0 0 0 0 0 0 0 0 0 0 0 0 0 0 0 0 0 0 0 0 0 0 0 0 0 0 0 0 0 0 0 0 0
0 0 0 0 0 0 0 0 0 0 0 0 0 0 0 0 0 0 0 0 0 0 0 0 0 0 0 0 0 0 0 0 0 0 0 0 0 0 0 0 0 0 0 0
0 0 0 0 0 0 0 0 0 -0 0 0 0 0 0 0 0 0 0 0 0 0 0 0 0 0 0 0 0 0 0 0 0 0 0 0 0 0 0 0 0 0 0 0
0 0 0 0 0 0 -0 0 0 0 0 0 0 0 0 0 0 0 0 0 0 0 0 0 0 0 0 0 0 0 0 0 0 0 0 0 0 0 0 0 0 0 0 0
0 0 0 0 0 0 0 0 0 0 0 0 0 0 0 0 0 0 0 0 0 0 0 0 0 0 0 0 0 0 0 0 0 0 0 0 0 0 0 0 0 0 0 0
0 -0 -0 -0 0 0 0 0 0 0 0 0 0 0 0 0 0 0 0 0 0 0 0 0 0 0 0 0 0 0 0 0 0 0 0 0 0 0 0 0 0 0 0 0
-0 -0 -0 -0 0 0 0 0 0 0 0 0 0 0 0 0 0 0 0 0 0 0 0 0 0 0 0 0 0 0 0 0 0 0 0 0 0 0 0 0 0 0 0 0
0 0 0 0 0 0 0 0 0 0 0 0 0 0 0 0 0 0 0 0 0 0 0 0 0 0 0 0 0 0 0 0 0 0 0 0 0 0 0 0 0 0 0 0
0 0 0 0 0 0 0 0 0 0 0 0 0 0 0 0 0 0 0 0 0 0 0 0 0 0 0 0 0 0 0 0 0 0 0 0 0 0 0 0 0 0 0 0
0 0 0 0 0 0 0 0 0 0 0 0 0 0 0 0 0 0 0 0 0 0 0 0 0 0 0 0 0 0 0 0 0 0 0 0 0 0 0 0 0 0 0 0
0 0 0 0 0 0 0 0 0 0 0 0 0 0 0 0 0 0 0 0 0 0 0 0 0 0 0 0 0 0 0 0 0 0 0 0 0 0 0 0 0 0 0 0
0 0 0 0 0 0 0 0 0 0 0 0 0 0 0 0 0 0 0 0 0 0 0 0 0 0 0 0 0 0 0 0 -0 0 0 0 0 0 0 0 0 0 0 0
0 0 0 0 0 0 0 0 0 0 0 0 0 0 0 0 0 0 0 0 0 0 0 0 0 0 0 0 0 0 0 0 0 0 0 0 0 0 0 0 0 0 0 0
0 0 0 0 0 0 0 0 0 0 0 0 0 0 0 0 0 0 0 0 0 0 0 0 0 0 0 0 0 0 0 0 0 0 0 0 0 0 0 0 0 0 0 0
0 0 0 0 0 0 0 0 0 0 0 0 0 0 0 0 0 0 0 0 0 0 0 0 0 0 0 0 0 0 0 0 0 0 0 0 0 0 0 0 0 0 0 0
0 0 0 0 0 0 0 0 0 0 0 0 0 0 0 0 0 0 0 0 0 0 0 0 0 0 0 0 0 0 0 0 0 0 0 0 0 0 0 0 0 0 0 0
0 0 0 0 0 0 0 0 0 0 0 0 0 0 0 0 0 0 0 0 0 0 0 0 0 0 0 0 0 0 0 0 0 0 0 0 0 0 0 0 0 0 0 0
0 0 0 0 0 0 0 0 0 0 0 0 0 0 0 0 0 0 0 0 0 0 0 0 0 0 0 0 0 0 0 0 0 0 0 0 0 0 0 0 0 0 0 0
0 0 0 0 0 0 0 0 0 0 0 0 0 0 0 0 0 0 0 0 0 0 0 0 0 0 0 0 0 0 0 0 0 0 0 0 0 0 0 0 0 0 0 0
0 0 0 0 0 0 0 0 0 0 0 0 0 0 0 0 0 0 0 0 0 0 0 0 0 0 0 0 0 0 0 0 0 0 0 0 0 0 0 0 0 0 0 0
0 0 0 0 0 0 0 0 0 0 0 0 0 0 0 0 0 0 0 0 0 0 0 0 0 0 0 0 0 0 0 0 0 0 0 0 0 0 0 0 0 0 0 0
Wind_Speed
6 5 1 1 3 2 2 4 5 2 3 3 5 6 7 7 7 8 10 11 11 10 9 9 10 10 10 10 10 9 9 8 9 9 8 8 7 7 5 4 4 3 2 3
3 2 1 1 4 3 4 3 3 4 3 4 5 5 7 8 9 9 11 12 12 12 11 11 11 11 11 11 11 10 10 10 9 8 7 8 8 7 6 5 4 3 2 1
4 3 2 3 5 3 4 4 3 3 3 7 8 11 11 10 9 10 12 13 13 13 11 11 11 10 9 10 10 10 10 10 9 8 8 8 8 8 8 7 5 4 3 2
1 1 1 1 4 6 6 5 5 4 5 7 8 11 10 7 7 10 12 12 12 11 12 11 10 10 9 9 9 9 10 10 9 9 8 8 7 9 9 7 6 5 5 4
2 1 2 2 3 4 2 1 4 5 8 10 10 8 6 5 6 9 11 11 11 11 12 11 12 11 10 10 10 9 10 10 10 9 9 8 8 10 9 8 8 7 5 6
2 1 1 2 7 8 2 2 3 6 8 10 10 8 7 8 12 14 13 11 11 11 10 10 11 9 9 10 10 11 11 10 10 9 10 10 10 9 8 8 9 9 7 7
2 1 2 4 10 7 1 4 8 7 8 9 7 9 11 13 14 13 13 14 13 12 10 10 11 9 10 10 11 11 11 10 10 9 9 10 9 8 8 9 9 9 9 7
3 3 3 7 6 4 4 6 7 8 9 10 11 13 13 13 13 13 13 13 12 11 11 11 10 10 11 12 12 11 11 11 11 10 9 9 8 8 8 10 11 11 9 8
2 1 2 2 2 4 5 7 8 8 11 12 12 13 14 13 12 13 13 13 11 11 12 12 11 10 12 13 12 11 11 11 11 11 9 8 8 8 7 9 10 10 10 9
2 1 4 5 5 5 6 7 10 11 12 12 13 14 15 13 12 12 13 13 12 12 13 13 12 12 12 13 12 11 12 12 10 10 10 8 7 6 6 8 9 10 10 10
1 4 6 5 6 7 8 10 11 12 12 12 13 15 15 14 13 13 13 12 11 12 14 15 13 12 13 12 11 11 11 11 10 9 9 9 8 7 7 8 10 11 11 11
3 5 5 8 9 9 10 11 13 14 13 13 14 16 17 15 14 13 14 13 13 14 14 15 13 13 13 11 10 10 10 10 8 8 8 8 8 8 9 10 13 16 15 13
5 5 6 10 10 9 9 12 15 15 15 16 15 15 15 15 14 13 14 15 15 15 15 15 14 13 13 11 10 10 11 10 8 8 8 8 7 7 7 6 9 13 15 16
6 5 7 8 10 13 14 15 15 14 14 14 15 15 15 16 14 15 16 16 16 16 15 15 14 14 12 10 10 11 11 12 11 8 8 8 7 7 6 6 5 6 9 14
7 6 9 11 11 12 13 13 14 15 14 15 14 14 15 16 17 17 16 16 16 16 16 15 15 15 12 10 10 11 10 8 8 8 8 8 7 7 6 7 6 7 6 8
8 10 10 11 13 14 14 14 15 15 15 15 15 15 16 16 17 17 17 16 16 17 16 15 15 14 12 10 10 9 8 14 12 8 7 7 6 6 6 6 6 7 9 10
6 8 10 12 13 14 14 14 14 14 15 16 17 17 17 17 17 18 17 16 16 16 16 15 15 14 12 10 10 8 7 9 13 9 7 6 6 6 6 5 6 7 8 11
8 10 11 13 13 15 15 14 14 16 16 17 17 17 17 17 18 19 18 18 17 17 16 14 13 12 11 10 8 7 6 6 6 7 6 6 6 5 5 5 6 8 8 10
10 11 12 13 13 13 14 15 16 15 16 16 17 18 17 18 18 18 18 18 18 17 15 12 14 13 11 11 12 6 6 7 6 6 6 6 6 5 4 5 6 8 9 10
10 11 12 13 13 13 14 15 15 15 16 16 17 18 18 18 18 18 18 17 14 13 13 13 13 11 10 10 12 6 6 6 6 5 5 5 5 4 4 4 6 8 9 10
11 12 13 13 13 13 13 15 15 17 17 17 17 18 19 19 19 17 16 15 14 12 13 14 10 9 8 7 9 6 6 6 5 5 5 4 4 4 3 4 6 8 9 10
10 11 12 13 13 14 14 13 14 17 18 18 18 19 19 19 19 17 16 13 13 14 12 9 8 9 10 9 5 5 5 5 5 4 4 3 3 3 3 4 6 7 9 9
9 10 11 12 13 15 15 14 15 16 17 18 19 19 18 17 15 15 15 12 12 14 12 9 10 13 13 7 4 4 4 4 4 3 3 3 3 3 3 5 6 7 8 9
9 9 10 11 12 12 15 16 16 15 16 17 17 17 17 15 13 12 12 15 16 15 10 9 12 12 9 3 3 3 3 3 3 3 3 3 3 3 3 4 5 7 8 10
8 8 9 12 12 11 13 15 16 16 16 15 17 18 14 12 13 14 14 14 15 13 10 9 11 9 5 3 3 3 3 3 3 2 2 3 3 3 3 4 5 6 7 8
7 8 9 10 10 11 11 12 12 13 14 15 15 15 14 13 14 13 12 13 14 12 9 7 6 5 3 2 2 2 1 2 2 2 3 2 3 3 3 4 6 6 7 7
7 7 7 9 9 9 10 11 12 14 14 14 16 15 15 14 14 14 14 12 10 9 8 7 5 4 3 2 2 1 0 0 1 1 1 1 1 2 3 4 4 4 5 6
Wind_Direction
237 249 223 269 319 355 173 214 209 208 120 8 342 336 332 335 343 357 1 358 354 347 341 338 339 337 335 329 327 323 315 300 280 264 246 234 228 225 222 224 235 254 288 320
282 276 181 63 15 35 41 30 72 94 76 354 332 336 339 342 347 350 350 344 339 336 334 331 327 325 326 324 323 321 315 306 296 277 253 238 229 220 216 217 222 226 241 301
268 295 87 16 357 63 64 25 41 58 359 341 343 341 332 328 334 336 335 332 326 323 318 313 309 305 306 310 315 318 315 312 309 294 268 249 234 219 216 210 205 208 202 193
259 27 219 84 48 83 95 61 42 30 346 339 325 312 300 299 319 323 321 316 311 307 305 302 298 297 295 300 307 312 314 314 315 306 286 265 241 227 219 204 200 202 196 185
98 128 130 109 34 10 329 89 35 351 332 326 320 307 291 294 310 305 301 297 294 292 293 294 294 296 300 301 303 306 307 309 309 306 296 279 253 238 221 204 200 197 191 183
81 352 317 2 326 322 266 179 16 331 320 322 330 322 299 307 310 306 303 300 298 296 295 294 293 293 293 294 297 297 298 299 301 300 295 286 267 248 224 207 204 195 190 188
50 13 67 333 317 335 6 309 315 310 306 307 297 275 284 296 299 296 297 299 299 300 297 291 292 293 288 288 285 285 289 292 294 293 291 287 279 258 228 210 200 194 189 189
18 10 354 343 9 36 281 283 291 296 294 292 287 287 292 296 297 297 297 295 296 296 294 293 293 291 288 285 283 286 288 288 287 288 289 294 284 271 238 211 199 193 187 185
58 79 261 296 265 256 263 284 287 286 289 292 293 293 294 292 291 292 290 290 289 287 289 289 286 283 283 283 284 287 287 283 282 284 283 281 278 274 254 216 200 193 188 187
69 345 288 289 281 281 281 277 283 286 289 290 289 290 290 289 289 287 285 285 285 285 286 287 283 280 276 280 284 285 286 283 280 279 281 278 271 264 253 225 201 194 188 187
8 288 303 296 287 289 296 298 298 297 295 290 289 291 290 291 289 288 287 285 281 281 282 282 281 278 278 279 280 283 285 284 281 275 274 277 272 258 251 233 210 195 192 186
241 251 254 274 282 292 294 293 294 296 294 288 286 288 290 290 288 288 288 286 286 284 282 282 281 279 278 276 274 277 283 284 279 275 272 271 277 277 256 239 221 208 195 185
240 259 257 270 283 285 284 286 292 292 290 292 291 287 289 288 289 287 287 287 287 285 284 284 283 281 279 275 273 272 274 279 277 273 271 268 271 271 279 256 220 205 193 183
262 276 284 280 284 291 291 291 292 290 288 287 289 291 292 292 292 291 291 290 289 287 287 285 283 281 279 274 271 273 273 277 278 271 269 263 264 264 260 247 216 192 190 185
283 275 267 280 287 290 292 295 298 298 296 295 294 294 295 295 295 295 294 293 292 290 289 286 284 283 281 276 273 274 275 273 272 272 268 261 260 262 257 244 219 188 164 169
292 296 293 294 295 297 301 302 300 298 299 300 301 298 296 294 295 295 295 295 294 293 291 287 284 284 283 276 274 275 271 275 279 275 268 262 262 258 249 233 209 186 177 165
294 294 295 298 299 298 298 296 296 297 301 303 303 302 300 299 299 298 298 296 293 290 288 285 283 284 282 276 272 271 267 272 279 279 268 265 263 253 241 222 201 187 178 168
271 274 281 288 297 302 303 302 301 301 302 302 303 302 302 302 301 301 301 300 298 293 288 285 283 285 282 278 272 264 262 262 263 266 266 266 262 247 231 216 200 187 168 161
298 294 296 298 299 299 301 302 304 303 302 304 305 304 302 300 300 300 301 301 299 297 294 290 288 287 284 279 280 264 260 261 261 262 262 262 259 245 223 216 198 180 164 160
300 300 300 300 300 302 303 304 306 306 306 307 307 306 305 304 304 304 303 299 293 292 293 293 293 288 282 277 280 266 260 259 261 263 260 260 258 246 230 211 193 174 165 165
301 303 304 304 305 305 304 305 309 308 309 309 308 307 307 306 307 306 304 301 298 298 300 296 292 288 280 273 275 262 254 252 253 252 255 254 251 246 233 207 187 170 166 166
299 302 305 307 309 310 310 309 308 309 311 311 311 310 310 310 310 307 299 295 299 302 303 299 294 289 285 280 266 253 246 247 247 242 239 240 241 239 227 203 180 168 166 165
299 301 305 309 310 309 311 314 315 315 314 314 313 313 312 309 308 307 307 306 306 306 305 299 296 296 294 284 262 248 244 245 242 238 230 231 234 230 218 197 178 171 166 165
303 305 306 306 309 312 317 320 319 317 315 313 312 312 313 312 310 306 303 304 306 306 306 302 299 301 300 286 266 249 240 241 238 231 226 228 229 233 215 186 174 171 168 167
304 306 310 319 323 321 318 319 320 321 321 319 318 319 318 314 311 313 313 313 315 312 311 308 304 302 299 283 266 255 245 233 224 220 218 219 221 223 203 182 174 170 166 168
309 311 311 310 310 314 318 321 321 322 323 323 323 323 323 320 317 317 319 319 321 321 320 322 324 318 313 300 282 267 240 216 218 218 216 219 218 207 186 178 172 169 168 169
310 311 312 318 319 319 320 320 320 322 324 325 324 324 324 325 326 328 328 328 332 333 335 337 338 340 341 338 328 323 277 224 215 212 210 214 198 171 166 165 163 160 162 165